User: anonymous   Login
Location: Unspecified
(0.0000°N, 0.0000°E)
Time: 01:25:43
(UTC+00:00)
Language:

Nimbus 5 - Orbit

View from above orbital plane
View from above orbital plane
View from above satellite
View from above satellite

Ground track
Ground track

The orbit data is extracted from the following two-line orbital elements,

1  6305U 72097A   18265.35973715 -.00000030 +00000-0 +25724-4 0  9999
2  6305 099.9653 170.1838 0008055 197.6333 268.4877 13.44122263245219
Epoch (UTC): 22 September 2018 08:38:01
Eccentricity: 0.0008055
inclination: 99.9653°
perigee height: 1088 km
apogee height: 1100 km
right ascension of ascending node: 170.1838°
argument of perigee: 197.6333°
revolutions per day: 13.44122263
mean anomaly at epoch: 268.4877°
orbit number at epoch: 24521

The dashed part of the orbit path shows where the satellite is in the earth's shadow,  

DLR